Regional Weather Roundup
Issued by NWS

Home | Current Version | Previous Version | Graphics & Text | Print | Product List | Glossary On
Versions: 1 2 3 4 5 6 7 8 9 10 11 12 13 14 15 16 17 18 19 20 21 22 23 24 25 26 27 28 29 30 31 32 33 34 35 36 37 38 39 40 41 42 43 44 45 46 47 48 49 50
527
ASUS45 KPSR 231310
RWRAZ

ARIZONA HOURLY REGIONAL WEATHER ROUNDUP
NATIONAL WEATHER SERVICE PHOENIX AZ
600 AM MST TUE AUG 23 2016

NOTE: FAIR INDICATES FEW OR NO CLOUDS BELOW 12,000 FEET WITH NO
SIGNIFICANT WEATHER AND/OR OBSTRUCTIONS TO VISIBILITY.

AZZ001>003-036-231400-
NORTHWEST ARIZONA

CITY           SKY/WX    TMP DP  RH WIND       PRES   REMARKS
BULLHEAD CITY  CLOUDY    79  59  50 N10       29.94R
KINGMAN        CLOUDY    62  59  90 E3        30.10R
$$

AZZ004>008-015-016-018-231400-
NORTH CENTRAL ARIZONA

CITY           SKY/WX    TMP DP  RH WIND       PRES   REMARKS
GRAND CANYON   CLOUDY    52  49  89 CALM      30.24R
PRESCOTT       CLOUDY    58  56  93 SE9       30.18R
FLAGSTAFF      CLOUDY    51  50  96 SW9       30.29R
PAYSON         LGT RAIN  59  52  77 NE10      30.24F
PAGE           MOCLDY    69  50  50 W3        30.09R
$$

AZZ009>014-017-231400-
NORTHEAST ARIZONA

CITY           SKY/WX    TMP DP  RH WIND       PRES   REMARKS
WINSLOW        LGT RAIN  62  52  69 S5        30.20R
SAINT JOHNS    CLOUDY    57  49  74 CALM      30.22R
WINDOW ROCK    PTCLDY    50  46  86 CALM      30.27R
SHOW LOW       RAIN      54  50  87 CALM      30.30S
$$

AZZ023-231400-
GREATER PHOENIX AREA

CITY           SKY/WX    TMP DP  RH WIND       PRES   REMARKS
PHOENIX        MOCLDY    74  66  76 E10       29.95S
BUCKEYE        CLEAR     75  63  64 E18       29.95S
GLENDALE       MOCLDY    73  68  83 SE7       29.98
LUKE AFB       CLEAR     74  64  72 CALM      29.96R
DEER VALLEY    PTCLDY    73  60  63 E14G23    29.96R
SCOTTSDALE     LGT RAIN  71  63  75 NE17      29.97F
MESA-FALCON    PTCLDY   N/A N/A N/A MISG      30.02
CHANDLER       PTCLDY    73  64  73 NE12G23   29.88
$$

AZZ027-028-231400-
SOUTHWEST MARICOPA COUNTY AND PINAL COUNTY

CITY           SKY/WX    TMP DP  RH WIND       PRES   REMARKS
CASA GRANDE    PTCLDY    75  57  53 N14       30.00R
GILA BEND      FAIR      78  60  54 NE6       29.93R
$$

AZZ503-504-507>509-231400-
SOUTHEAST ARIZONA

CITY           SKY/WX    TMP DP  RH WIND       PRES   REMARKS
TUCSON         PTCLDY    71  59  65 SE7       30.06R
DAVIS-MONTHAN  PTCLDY    71  59  66 S7        30.05R
RYAN FIELD     CLEAR     68  57  68 SW5       30.06
NOGALES        CLEAR     59  54  83 CALM      30.14R
SIERRA VISTA   CLEAR     65  51  61 E1        30.19R
DOUGLAS        PTCLDY    61  53  75 N5        30.15R
SAFFORD        PTCLDY    67  47  48 W6        30.05R
$$

AZZ020-021-025-026-031-231400-
SOUTHWEST ARIZONA

CITY           SKY/WX    TMP DP  RH WIND       PRES   REMARKS
YUMA           PTCLDY    82  70  66 CALM      29.86R
$$

CAZ031-033-041-043-047-048-061-231400-
SOUTHERN CALIFORNIA

CITY           SKY/WX    TMP DP  RH WIND       PRES   REMARKS
DOWNTOWN L.A.  CLEAR     64  59  83 CALM      29.97R
L.A. AIRPORT   PTCLDY    65  60  84 N3        29.97R
SAN DIEGO      MOCLDY    63  61  93 CALM      29.98R FOG
BURBANK        CLEAR     65  56  72 S3        29.98R
ONTARIO        PTCLDY    67  56  67 CALM      29.98R
RIVERSIDE      CLEAR     66  57  72 CALM      29.98R
PALM SPRINGS   CLEAR     78  53  41 S3        29.90R
EL CENTRO NAS  PTCLDY    79  32  18 W9        29.86R
IMPERIAL       CLEAR     78  43  28 W7        29.83R
BLYTHE         CLEAR     82  57  42 N10       29.88R
NEEDLES        CLOUDY    76  66  71 W7        29.95R
$$

NVZ020-UTZ003-231400-
SOUTHERN NEVADA-UTAH

CITY           SKY/WX    TMP DP  RH WIND       PRES   REMARKS
LAS VEGAS      MOCLDY    72  57  59 CALM      30.00R
SALT LAKE CITY MOCLDY    68  40  35 SE6       30.05R
$$

NMZ009-TXZ055-231400-
NEW MEXICO-WEST TEXAS

CITY           SKY/WX    TMP DP  RH WIND       PRES   REMARKS
ALBUQUERQUE    PTCLDY    58  54  86 NW5       30.21R
EL PASO        MOCLDY    71  62  73 CALM      30.12R
$$


........................KEY........................
SKY/WX - SKY CONDITION/WEATHER
TMP    - TEMPERATURE IN FAHRENHEIT
DP     - DEW POINT IN FAHRENHEIT
RH     - RELATIVE HUMIDITY IN PERCENT
WIND   - DIRECTION AND SPEED IN MILES PER HOUR (MPH)
VRB    - VARIABLE WIND DIRECTION
PRES   - MEAN SEA LEVEL PRESSURE IN INCHES OF MERCURY
         F - FALLING PRESSURE   R - RISING PRESSURE
         S - STEADY PRESSURE
VSB    - VISIBILITY IN MILES
HX     - HEAT INDEX IN FAHRENHEIT
WCI    - WIND CHILL INDEX IN FAHRENHEIT
TC     - TEMPERATURE IN CELSIUS WHICH IS ALSO KNOWN AS
         TEMPERATURE IN CENTIGRADE
AFB    - AIR FORCE BASE
         LUKE AFB IS LUKE AIR FORCE BASE
         DAVIS-MONTHAN IS DAVIS-MONTHAN AIR FORCE BASE
NAS    - NAVAL AIR STATION
         EL CENTRO NAS IS EL CENTRO NAVAL AIR STATION
N/A    - NOT AVAILABLE





USA.gov is the U.S. government's official web portal to all federal, state and local government web resources and services.